Location: Clyde
(45.1830°S, 169.3170°E)
Time: 09:44:16
(UTC+12:00)

Genesis I - Pass Details

Date: 14 May 2021
Orbit: 479 x 540 km, 64.5° (Epoch: 15 June)

Event Time Altitude Azimuth Distance (km) Brightness Sun altitude
Rises 18:50:56 0° 329° (NNW) 2,658 7.5 -15.2°
Reaches altitude 10° 18:53:07 10° 330° (NNW) 1,767 6.5 -15.6°
Maximum altitude 18:57:05 77° 55° (NE) 541 3.1 -16.2°
Enters shadow 18:59:03 28° 138° (SE) 996 4.2 -16.6°
